| time (UTC) | temp C | wind direction | speed KPH | gust KPH | rain 1hr cm | rain 24hr cm | rain mn cm | humidity % | barometer mb |
| 20260505084012 | 15 | 176 | 1.6 | 6.4 | 0.00 | 0.00 | 0.00 | 76 | 1007.0 |
| 20260505083726 | 15 | 238 | 1.6 | 6.4 | 0.00 | 0.00 | 0.00 | 76 | 1007.1 |
| 20260505083005 | 15 | 183 | 1.6 | 6.4 | 0.00 | 0.00 | 0.00 | 76 | 1007.2 |
| 20260505082506 | 15 | 194 | 1.6 | 6.4 | 0.00 | 0.00 | 0.00 | 76 | 1007.2 |
| 20260505082004 | 15 | 133 | 1.6 | 6.4 | 0.00 | 0.00 | 0.00 | 76 | 1007.2 |
| 20260505081501 | 15 | 168 | 1.6 | 6.4 | 0.00 | 0.00 | 0.00 | 76 | 1007.4 |
| 20260505080958 | 15 | 186 | 0.0 | 4.8 | 0.00 | 0.00 | 0.00 | 76 | 1007.4 |
| 20260505080801 | 15 | 128 | 0.0 | 3.2 | 0.00 | 0.00 | 0.00 | 75 | 1007.4 |
| 20260505080705 | 15 | 126 | 0.0 | 3.2 | 0.00 | 0.00 | 0.00 | 75 | 1007.4 |
| 20260505075440 | 15 | 106 | 0.0 | 6.4 | 0.00 | 0.00 | 0.00 | 75 | 1007.5 |
| 20260505074941 | 15 | 104 | 1.6 | 6.4 | 0.00 | 0.00 | 0.00 | 75 | 1007.4 |
| 20260505074422 | 15 | 113 | 1.6 | 4.8 | 0.00 | 0.00 | 0.00 | 75 | 1007.4 |
| 20260505074129 | 15 | 104 | 1.6 | 4.8 | 0.00 | 0.00 | 0.00 | 75 | 1007.5 |
| 20260505073356 | 15 | 98 | 1.6 | 4.8 | 0.00 | 0.00 | 0.00 | 75 | 1007.7 |
| 20260505072856 | 15 | 265 | 1.6 | 4.8 | 0.00 | 0.00 | 0.00 | 75 | 1007.7 |
| 20260505072610 | 15 | 119 | 1.6 | 4.8 | 0.00 | 0.00 | 0.00 | 75 | 1007.8 |
| 20260505072109 | 15 | 150 | 1.6 | 4.8 | 0.00 | 0.00 | 0.00 | 74 | 1007.9 |
| 20260505071344 | 15 | 149 | 1.6 | 4.8 | 0.00 | 0.00 | 0.00 | 75 | 1008.1 |
| 20260505070840 | 15 | 215 | 0.0 | 4.8 | 0.00 | 0.00 | 0.00 | 74 | 1008.2 |
| 20260505070339 | 15 | 138 | 0.0 | 3.2 | 0.00 | 0.00 | 0.00 | 74 | 1008.2 |
| 20260505065842 | 15 | 139 | 0.0 | 3.2 | 0.00 | 0.00 | 0.00 | 73 | 1008.3 |
| 20260505065336 | 15 | 136 | 0.0 | 4.8 | 0.00 | 0.00 | 0.00 | 73 | 1008.5 |
| 20260505064821 | 15 | 140 | 0.0 | 4.8 | 0.00 | 0.00 | 0.00 | 73 | 1008.5 |
| 20260505064312 | 15 | 145 | 0.0 | 4.8 | 0.00 | 0.00 | 0.00 | 72 | 1008.6 |
| 20260505063803 | 15 | 132 | 0.0 | 0.0 | 0.00 | 0.00 | 0.00 | 72 | 1008.7 |
| 20260505063301 | 15 | 132 | 0.0 | 0.0 | 0.00 | 0.00 | 0.00 | 72 | 1008.7 |
| 20260505062747 | 15 | 132 | 0.0 | 3.2 | 0.00 | 0.00 | 0.00 | 72 | 1008.8 |
| 20260505062503 | 16 | 132 | 0.0 | 3.2 | 0.00 | 0.00 | 0.00 | 71 | 1008.7 |
| 20260505061956 | 16 | 133 | 0.0 | 0.0 | 0.00 | 0.00 | 0.00 | 71 | 1008.8 |
| 20260505061224 | 16 | 133 | 0.0 | 3.2 | 0.00 | 0.00 | 0.00 | 71 | 1008.9 |
| 20260505060703 | 16 | 133 | 0.0 | 3.2 | 0.00 | 0.00 | 0.00 | 71 | 1008.9 |
| 20260505060204 | 16 | 133 | 0.0 | 3.2 | 0.00 | 0.00 | 0.00 | 71 | 1008.8 |
| 20260505055706 | 16 | 157 | 0.0 | 3.2 | 0.00 | 0.00 | 0.00 | 71 | 1008.9 |
| 20260505055154 | 16 | 157 | 0.0 | 3.2 | 0.00 | 0.00 | 0.00 | 71 | 1008.8 |
| 20260505054909 | 16 | 154 | 0.0 | 0.0 | 0.00 | 0.00 | 0.00 | 71 | 1008.8 |
| 20260505054143 | 16 | 153 | 0.0 | 0.0 | 0.00 | 0.00 | 0.00 | 71 | 1008.9 |
| 20260505053849 | 16 | 153 | 0.0 | 0.0 | 0.00 | 0.00 | 0.00 | 71 | 1008.8 |
| 20260505053351 | 16 | 144 | 0.0 | 0.0 | 0.00 | 0.00 | 0.00 | 70 | 1008.9 |
| 20260505052606 | 16 | 144 | 0.0 | 0.0 | 0.00 | 0.00 | 0.00 | 70 | 1008.9 |
| 20260505052059 | 16 | 144 | 0.0 | 0.0 | 0.00 | 0.00 | 0.00 | 70 | 1008.9 |
| 20260505051557 | 16 | 144 | 0.0 | 0.0 | 0.00 | 0.00 | 0.00 | 70 | 1009.0 |
| 20260505051056 | 16 | 117 | 0.0 | 0.0 | 0.00 | 0.00 | 0.00 | 69 | 1009.0 |
| 20260505050548 | 16 | 265 | 0.0 | 0.0 | 0.00 | 0.00 | 0.00 | 69 | 1009.1 |
| 20260505041458 | 17 | 155 | 0.0 | 1.6 | 0.00 | 0.00 | 0.00 | 64 | 1009.1 |
| 20260505040953 | 18 | 157 | 0.0 | 3.2 | 0.00 | 0.00 | 0.00 | 63 | 1009.2 |
| 20260505040453 | 18 | 157 | 0.0 | 4.8 | 0.00 | 0.00 | 0.00 | 63 | 1009.1 |
| 20260505035952 | 18 | 151 | 1.6 | 4.8 | 0.00 | 0.00 | 0.00 | 63 | 1009.0 |
| 20260505035441 | 18 | 205 | 1.6 | 8.0 | 0.00 | 0.00 | 0.00 | 63 | 1009.0 |
| 20260505034935 | 18 | 230 | 1.6 | 8.0 | 0.00 | 0.00 | 0.00 | 62 | 1009.1 |
| 20260505034434 | 18 | 205 | 1.6 | 8.0 | 0.00 | 0.00 | 0.00 | 63 | 1009.1 |
| 20260505033933 | 18 | 204 | 1.6 | 8.0 | 0.00 | 0.00 | 0.00 | 63 | 1009.0 |
| 20260505033434 | 18 | 138 | 1.6 | 8.0 | 0.00 | 0.00 | 0.00 | 63 | 1009.1 |
| 20260505032932 | 18 | 155 | 1.6 | 8.0 | 0.00 | 0.00 | 0.00 | 62 | 1009.1 |
| 20260505032649 | 18 | 117 | 1.6 | 6.4 | 0.00 | 0.00 | 0.00 | 63 | 1009.1 |
| 20260505031926 | 18 | 159 | 1.6 | 6.4 | 0.00 | 0.00 | 0.00 | 62 | 1009.0 |
| 20260505031410 | 18 | 176 | 1.6 | 4.8 | 0.00 | 0.00 | 0.00 | 63 | 1009.0 |
| 20260505030905 | 18 | 192 | 1.6 | 4.8 | 0.00 | 0.00 | 0.00 | 63 | 1009.0 |
| 20260505030405 | 18 | 186 | 1.6 | 4.8 | 0.00 | 0.00 | 0.00 | 62 | 1009.0 |
| 20260505025859 | 18 | 192 | 1.6 | 8.0 | 0.00 | 0.00 | 0.00 | 63 | 1009.0 |
| 20260505025403 | 18 | 178 | 0.0 | 8.0 | 0.00 | 0.00 | 0.00 | 62 | 1008.9 |
| 20260505024841 | 18 | 184 | 0.0 | 4.8 | 0.00 | 0.00 | 0.00 | 62 | 1008.9 |
| 20260505024344 | 18 | 159 | 1.6 | 4.8 | 0.00 | 0.00 | 0.00 | 63 | 1008.9 |
| 20260505023839 | 18 | 129 | 0.0 | 4.8 | 0.00 | 0.00 | 0.00 | 63 | 1008.9 |
| 20260505023338 | 18 | 124 | 0.0 | 3.2 | 0.00 | 0.00 | 0.00 | 62 | 1008.8 |
| 20260505023102 | 18 | 194 | 0.0 | 1.6 | 0.00 | 0.00 | 0.00 | 62 | 1008.8 |
| 20260505022325 | 18 | 194 | 0.0 | 3.2 | 0.00 | 0.00 | 0.00 | 62 | 1008.8 |
| 20260505022045 | 18 | 198 | 0.0 | 3.2 | 0.00 | 0.00 | 0.00 | 62 | 1008.7 |
| 20260505021325 | 18 | 137 | 0.0 | 3.2 | 0.00 | 0.00 | 0.00 | 61 | 1008.7 |
| 20260505020807 | 18 | 133 | 0.0 | 3.2 | 0.00 | 0.00 | 0.00 | 60 | 1008.6 |
| 20260505020305 | 18 | 74 | 0.0 | 0.0 | 0.00 | 0.00 | 0.00 | 59 | 1008.5 |
| 20260505015805 | 18 | 74 | 0.0 | 0.0 | 0.00 | 0.00 | 0.00 | 59 | 1008.4 |
| 20260505015513 | 19 | 74 | 0.0 | 0.0 | 0.00 | 0.00 | 0.00 | 59 | 1008.4 |
| 20260505014725 | 19 | 163 | 0.0 | 0.0 | 0.00 | 0.00 | 0.00 | 59 | 1008.3 |
| 20260505014217 | 19 | 165 | 0.0 | 0.0 | 0.00 | 0.00 | 0.00 | 58 | 1008.4 |
| 20260505013706 | 20 | 150 | 0.0 | 0.0 | 0.00 | 0.00 | 0.00 | 56 | 1008.5 |
| 20260505013211 | 20 | 150 | 0.0 | 0.0 | 0.00 | 0.00 | 0.00 | 55 | 1008.6 |
| 20260505012710 | 20 | 150 | 0.0 | 0.0 | 0.00 | 0.00 | 0.00 | 55 | 1008.5 |
| 20260505012204 | 20 | 150 | 0.0 | 0.0 | 0.00 | 0.00 | 0.00 | 54 | 1008.6 |
| 20260505011704 | 20 | 150 | 0.0 | 0.0 | 0.00 | 0.00 | 0.00 | 54 | 1008.6 |
| 20260505011153 | 21 | 198 | 0.0 | 0.0 | 0.00 | 0.00 | 0.00 | 53 | 1008.6 |
| 20260505010649 | 21 | 198 | 0.0 | 4.8 | 0.00 | 0.00 | 0.00 | 52 | 1008.6 |
| 20260505010130 | 21 | 198 | 1.6 | 8.0 | 0.00 | 0.00 | 0.00 | 52 | 1008.5 |
| 20260505005627 | 21 | 214 | 1.6 | 8.0 | 0.00 | 0.00 | 0.00 | 51 | 1008.5 |
| 20260505005121 | 21 | 188 | 0.0 | 4.8 | 0.00 | 0.00 | 0.00 | 51 | 1008.5 |
| 20260505004618 | 21 | 194 | 0.0 | 4.8 | 0.00 | 0.00 | 0.00 | 50 | 1008.4 |
| 20260505004119 | 22 | 196 | 1.6 | 9.7 | 0.00 | 0.00 | 0.00 | 51 | 1008.4 |
| 20260505003606 | 22 | 209 | 3.2 | 9.7 | 0.00 | 0.00 | 0.00 | 49 | 1008.5 |
| 20260505003109 | 22 | 175 | 1.6 | 8.0 | 0.00 | 0.00 | 0.00 | 49 | 1008.5 |
| 20260505002600 | 22 | 180 | 1.6 | 6.4 | 0.00 | 0.00 | 0.00 | 48 | 1008.5 |
| 20260505002102 | 23 | 240 | 1.6 | 6.4 | 0.00 | 0.00 | 0.00 | 48 | 1008.4 |
| 20260505001552 | 23 | 323 | 1.6 | 9.7 | 0.00 | 0.00 | 0.00 | 46 | 1008.5 |
| 20260505001047 | 23 | 119 | 1.6 | 9.7 | 0.00 | 0.00 | 0.00 | 46 | 1008.4 |
| 20260505000544 | 23 | 198 | 3.2 | 12.9 | 0.00 | 0.00 | 0.00 | 45 | 1008.5 |
| 20260505000039 | 23 | 165 | 3.2 | 12.9 | 0.00 | 0.00 | 0.00 | 45 | 1008.4 |
| 20260504235535 | 24 | 138 | 1.6 | 8.0 | 0.00 | 0.00 | 0.00 | 46 | 1008.4 |
| 20260504235035 | 24 | 236 | 1.6 | 14.5 | 0.00 | 0.00 | 0.00 | 45 | 1008.5 |
| 20260504234535 | 24 | 228 | 3.2 | 14.5 | 0.00 | 0.00 | 0.00 | 44 | 1008.5 |
| 20260504234024 | 25 | 348 | 1.6 | 6.4 | 0.00 | 0.00 | 0.00 | 45 | 1008.5 |
| 20260504233523 | 25 | 199 | 1.6 | 8.0 | 0.00 | 0.00 | 0.00 | 44 | 1008.6 |
| 20260504233246 | 25 | 209 | 4.8 | 11.3 | 0.00 | 0.00 | 0.00 | 43 | 1008.6 |
| 20260504232522 | 25 | 223 | 4.8 | 12.9 | 0.00 | 0.00 | 0.00 | 42 | 1008.6 |
| 20260504232025 | 25 | 301 | 4.8 | 16.1 | 0.00 | 0.00 | 0.00 | 42 | 1008.7 |
| 20260504231521 | 25 | 184 | 4.8 | 16.1 | 0.00 | 0.00 | 0.00 | 42 | 1008.6 |
| 20260504231019 | 25 | 236 | 4.8 | 14.5 | 0.00 | 0.00 | 0.00 | 43 | 1008.8 |
| 20260504230514 | 26 | 141 | 4.8 | 12.9 | 0.00 | 0.00 | 0.00 | 43 | 1008.8 |
| 20260504230016 | 26 | 257 | 3.2 | 11.3 | 0.00 | 0.00 | 0.00 | 42 | 1008.7 |
| 20260504225511 | 26 | 156 | 3.2 | 11.3 | 0.00 | 0.00 | 0.00 | 43 | 1008.7 |
| 20260504225010 | 26 | 145 | 4.8 | 11.3 | 0.00 | 0.00 | 0.00 | 41 | 1008.7 |
| 20260504224512 | 26 | 276 | 4.8 | 17.7 | 0.00 | 0.00 | 0.00 | 40 | 1008.7 |
| 20260504224014 | 26 | 267 | 6.4 | 20.9 | 0.00 | 0.00 | 0.00 | 39 | 1008.7 |
| 20260504223512 | 26 | 199 | 4.8 | 20.9 | 0.00 | 0.00 | 0.00 | 39 | 1008.8 |
| 20260504223010 | 26 | 190 | 3.2 | 14.5 | 0.00 | 0.00 | 0.00 | 41 | 1008.8 |
| 20260504222730 | 26 | 188 | 3.2 | 14.5 | 0.00 | 0.00 | 0.00 | 42 | 1008.8 |
| 20260504222001 | 26 | 355 | 3.2 | 14.5 | 0.00 | 0.00 | 0.00 | 44 | 1008.6 |
| 20260504221500 | 26 | 217 | 3.2 | 11.3 | 0.00 | 0.00 | 0.00 | 41 | 1008.8 |
| 20260504221425 | 26 | 336 | 4.8 | 14.5 | 0.00 | 0.00 | 0.00 | 43 | 1008.7 |
| 20260504221046 | 26 | 336 | 4.8 | 12.9 | 0.00 | 0.00 | 0.00 | 42 | 1008.7 |
| 20260504215955 | 26 | 244 | 6.4 | 17.7 | 0.00 | 0.00 | 0.00 | 42 | 1008.7 |
| 20260504215451 | 26 | 150 | 4.8 | 17.7 | 0.00 | 0.00 | 0.00 | 42 | 1008.6 |
| 20260504214944 | 26 | 220 | 4.8 | 19.3 | 0.00 | 0.00 | 0.00 | 43 | 1008.7 |
| 20260504214441 | 26 | 264 | 6.4 | 20.9 | 0.00 | 0.00 | 0.00 | 43 | 1008.7 |
| 20260504213936 | 26 | 180 | 4.8 | 20.9 | 0.00 | 0.00 | 0.00 | 40 | 1008.7 |
| 20260504213431 | 27 | 146 | 4.8 | 17.7 | 0.00 | 0.00 | 0.00 | 43 | 1008.8 |
| 20260504212931 | 27 | 161 | 4.8 | 17.7 | 0.00 | 0.00 | 0.00 | 40 | 1008.8 |
| 20260504212430 | 27 | 192 | 4.8 | 16.1 | 0.00 | 0.00 | 0.00 | 45 | 1008.8 |
| 20260504211928 | 27 | 310 | 6.4 | 16.1 | 0.00 | 0.00 | 0.00 | 42 | 1008.9 |
| 20260504211430 | 27 | 146 | 4.8 | 14.5 | 0.00 | 0.00 | 0.00 | 42 | 1009.0 |
| 20260504210933 | 27 | 178 | 4.8 | 29.0 | 0.00 | 0.00 | 0.00 | 45 | 1009.1 |
| 20260504210650 | 26 | 115 | 6.4 | 29.0 | 0.00 | 0.00 | 0.00 | 43 | 1009.1 |
| 20260504210152 | 26 | 194 | 6.4 | 16.1 | 0.00 | 0.00 | 0.00 | 40 | 1009.0 |
| 20260504205426 | 27 | 247 | 4.8 | 16.1 | 0.00 | 0.00 | 0.00 | 44 | 1009.1 |
| 20260504204933 | 26 | 312 | 6.4 | 17.7 | 0.00 | 0.00 | 0.00 | 46 | 1009.2 |
| 20260504204645 | 26 | 281 | 6.4 | 17.7 | 0.00 | 0.00 | 0.00 | 44 | 1009.2 |
| 20260504204151 | 26 | 255 | 4.8 | 16.1 | 0.00 | 0.00 | 0.00 | 43 | 1009.2 |
| 20260504203641 | 26 | 202 | 6.4 | 22.5 | 0.00 | 0.00 | 0.00 | 44 | 1009.3 |
| 20260504203406 | 26 | 93 | 6.4 | 24.1 | 0.00 | 0.00 | 0.00 | 42 | 1009.4 |
| 20260504202407 | 26 | 175 | 6.4 | 24.1 | 0.00 | 0.00 | 0.00 | 43 | 1009.5 |
| 20260504201908 | 26 | 172 | 6.4 | 19.3 | 0.00 | 0.00 | 0.00 | 43 | 1009.6 |
| 20260504201402 | 26 | 188 | 6.4 | 19.3 | 0.00 | 0.00 | 0.00 | 43 | 1009.7 |
| 20260504200905 | 26 | 217 | 4.8 | 14.5 | 0.00 | 0.00 | 0.00 | 42 | 1009.7 |
| 20260504200405 | 26 | 76 | 4.8 | 20.9 | 0.00 | 0.00 | 0.00 | 44 | 1009.9 |
| 20260504195904 | 26 | 171 | 6.4 | 20.9 | 0.00 | 0.00 | 0.00 | 42 | 1010.0 |
| 20260504195402 | 26 | 321 | 6.4 | 16.1 | 0.00 | 0.00 | 0.00 | 42 | 1009.9 |
| 20260504194904 | 26 | 294 | 6.4 | 20.9 | 0.00 | 0.00 | 0.00 | 46 | 1010.2 |
| 20260504194359 | 26 | 115 | 6.4 | 20.9 | 0.00 | 0.00 | 0.00 | 44 | 1010.3 |
| 20260504193903 | 26 | 227 | 6.4 | 17.7 | 0.00 | 0.00 | 0.00 | 42 | 1010.3 |
| 20260504193400 | 26 | 315 | 6.4 | 20.9 | 0.00 | 0.00 | 0.00 | 44 | 1010.3 |
| 20260504192856 | 26 | 85 | 8.0 | 20.9 | 0.00 | 0.00 | 0.00 | 42 | 1010.4 |
| 20260504192622 | 26 | 141 | 8.0 | 20.9 | 0.00 | 0.00 | 0.00 | 44 | 1010.5 |
| 20260504191859 | 26 | 240 | 6.4 | 20.9 | 0.00 | 0.00 | 0.00 | 46 | 1010.5 |
| 20260504191841 | 26 | 225 | 6.4 | 20.9 | 0.00 | 0.00 | 0.00 | 44 | 1010.6 |
| 20260504190857 | 26 | 234 | 6.4 | 20.9 | 0.00 | 0.00 | 0.00 | 45 | 1010.7 |
| 20260504190354 | 26 | 228 | 4.8 | 14.5 | 0.00 | 0.00 | 0.00 | 46 | 1010.8 |
| 20260504185848 | 26 | 198 | 4.8 | 14.5 | 0.00 | 0.00 | 0.00 | 49 | 1010.8 |
| 20260504185341 | 26 | 188 | 6.4 | 20.9 | 0.00 | 0.00 | 0.00 | 50 | 1010.9 |
| 20260504185103 | 25 | 168 | 4.8 | 20.9 | 0.00 | 0.00 | 0.00 | 45 | 1010.9 |
| 20260504184337 | 25 | 0 | 3.2 | 14.5 | 0.00 | 0.00 | 0.00 | 46 | 1011.0 |
| 20260504183834 | 25 | 254 | 4.8 | 17.7 | 0.00 | 0.00 | 0.00 | 45 | 1011.1 |
| 20260504183334 | 25 | 300 | 6.4 | 19.3 | 0.00 | 0.00 | 0.00 | 44 | 1011.2 |
| 20260504182839 | 26 | 309 | 4.8 | 19.3 | 0.00 | 0.00 | 0.00 | 42 | 1011.2 |
| 20260504182327 | 26 | 207 | 4.8 | 20.9 | 0.00 | 0.00 | 0.00 | 47 | 1011.3 |
| 20260504181827 | 26 | 201 | 6.4 | 20.9 | 0.00 | 0.00 | 0.00 | 43 | 1011.1 |
| 20260504181543 | 26 | 203 | 6.4 | 19.3 | 0.00 | 0.00 | 0.00 | 44 | 1011.4 |
| 20260504180824 | 26 | 269 | 4.8 | 19.3 | 0.00 | 0.00 | 0.00 | 50 | 1011.3 |
| 20260504180322 | 26 | 259 | 6.4 | 20.9 | 0.00 | 0.00 | 0.00 | 45 | 1011.3 |
| 20260504175819 | 26 | 304 | 6.4 | 20.9 | 0.00 | 0.00 | 0.00 | 47 | 1011.3 |
| 20260504175319 | 26 | 236 | 4.8 | 12.9 | 0.00 | 0.00 | 0.00 | 47 | 1011.5 |
| 20260504174816 | 26 | 247 | 4.8 | 16.1 | 0.00 | 0.00 | 0.00 | 48 | 1011.4 |
| 20260504174317 | 26 | 260 | 6.4 | 19.3 | 0.00 | 0.00 | 0.00 | 47 | 1011.6 |
| 20260504173817 | 25 | 261 | 6.4 | 19.3 | 0.00 | 0.00 | 0.00 | 48 | 1011.6 |
| 20260504173315 | 25 | 260 | 4.8 | 12.9 | 0.00 | 0.00 | 0.00 | 48 | 1011.7 |
| 20260504173043 | 25 | 187 | 4.8 | 14.5 | 0.00 | 0.00 | 0.00 | 51 | 1011.7 |
| 20260504172312 | 25 | 233 | 6.4 | 19.3 | 0.00 | 0.00 | 0.00 | 49 | 1011.6 |
| 20260504171809 | 25 | 277 | 6.4 | 19.3 | 0.00 | 0.00 | 0.00 | 46 | 1011.8 |
| 20260504171307 | 25 | 220 | 6.4 | 19.3 | 0.00 | 0.00 | 0.00 | 45 | 1012.0 |
| 20260504170801 | 25 | 286 | 6.4 | 19.3 | 0.00 | 0.00 | 0.00 | 45 | 1012.0 |
| 20260504170308 | 25 | 290 | 4.8 | 16.1 | 0.00 | 0.00 | 0.00 | 46 | 1012.0 |
| 20260504160236 | 23 | 301 | 4.8 | 17.7 | 0.00 | 0.00 | 0.00 | 57 | 1012.8 |
| 20260504150713 | 22 | 281 | 3.2 | 11.3 | 0.00 | 0.00 | 0.00 | 64 | 1013.0 |
| 20260504150213 | 22 | 240 | 3.2 | 11.3 | 0.00 | 0.00 | 0.00 | 65 | 1013.0 |
| 20260504141202 | 20 | 246 | 3.2 | 8.0 | 0.00 | 0.00 | 0.00 | 67 | 1012.9 |
| 20260504140658 | 20 | 165 | 1.6 | 8.0 | 0.00 | 0.00 | 0.00 | 68 | 1012.9 |
| 20260504140157 | 19 | 209 | 1.6 | 6.4 | 0.00 | 0.00 | 0.00 | 70 | 1013.0 |
| 20260504130640 | 16 | 263 | 0.0 | 6.4 | 0.00 | 0.00 | 0.00 | 79 | 1012.6 |
| 20260504130137 | 16 | 188 | 0.0 | 0.0 | 0.00 | 0.00 | 0.00 | 77 | 1012.6 |
| 20260504110440 | 13 | 210 | 0.0 | 3.2 | 0.00 | 0.00 | 0.00 | 77 | 1011.8 |
| 20260504110123 | 13 | 271 | 0.0 | 3.2 | 0.00 | 0.00 | 0.00 | 76 | 1011.8 |
| 20260504100557 | 14 | 158 | 1.6 | 11.3 | 0.00 | 0.00 | 0.00 | 74 | 1012.1 |